EW7614 Weather Reports


Display with metric or nautical units.
time (UTC)temp
F
wind
direction
speed
MPH
gust
MPH
rain 1hr
in
rain 24hr
in
rain mn
in
humidity
%
barometer
mb
20260906040123 52 322 0.0 0.0 0.00 0.04 0.00 96 1023.3
20260906034531 52 322 0.0 0.0 0.00 0.04 0.00 96 1023.2
20260906033122 52 322 0.0 1.0 0.00 0.04 0.00 96 1023.3
20260906031606 52 327 0.0 0.0 0.00 0.04 0.00 96 1023.2
20260906030159 52 329 0.0 0.0 0.00 0.04 0.00 96 1023.0
20260906024519 52 331 0.0 0.0 0.00 0.11 0.00 95 1023.0
20260906023110 53 331 0.0 1.0 0.00 0.11 0.00 96 1022.9
20260906021658 53 331 0.0 1.0 0.00 0.11 0.00 95 1023.0
20260906020029 53 317 0.0 0.0 0.00 0.11 0.00 95 1022.9
20260906014611 54 317 0.0 0.0 0.00 0.11 0.00 96 1022.7
20260906013028 54 317 0.0 0.0 0.00 0.11 0.00 96 1022.7
20260906011623 54 317 0.0 0.0 0.00 0.11 0.00 95 1022.8
20260906010110 54 317 0.0 0.0 0.00 0.11 0.00 95 1022.7
20260906004522 55 317 0.0 0.0 0.00 0.11 0.00 94 1022.7
20260906003116 55 317 0.0 0.0 0.00 0.11 0.00 94 1022.7
20260906001522 56 317 0.0 0.0 0.00 0.11 0.00 94 1022.5
20260906000112 56 306 0.0 0.0 0.00 0.11 0.00 93 1022.6
20260905234530 57 305 0.0 0.0 0.00 0.11 0.00 93 1022.6
20260905233112 57 311 0.0 0.0 0.00 0.11 0.00 93 1022.6
20260905231544 57 311 0.0 0.0 0.00 0.11 0.00 92 1022.6
20260905230131 57 311 0.0 0.0 0.00 0.11 0.00 92 1022.7
20260905224541 57 304 0.0 0.0 0.00 0.11 0.00 92 1022.5
20260905223130 58 306 0.0 1.0 0.00 0.11 0.00 92 1022.5
20260905221613 57 306 0.0 1.0 0.00 0.11 0.00 93 1022.6
20260905220021 57 300 0.0 2.0 0.00 0.11 0.00 92 1022.5
20260905214655 57 306 0.0 1.0 0.00 0.11 0.11 92 1022.4
20260905213110 57 305 0.0 1.0 0.00 0.11 0.11 91 1022.2
20260905211541 57 294 0.0 1.0 0.00 0.11 0.11 92 1022.0
20260905210133 59 314 0.0 0.0 0.00 0.11 0.11 90 1022.0
20260905204609 59 293 0.0 0.0 0.00 0.11 0.11 90 1022.2
20260905203046 59 293 0.0 0.0 0.00 0.11 0.11 88 1022.2
20260905201616 60 293 0.0 0.0 0.00 0.11 0.11 87 1022.1
20260905200034 61 293 0.0 0.0 0.00 0.11 0.11 87 1022.1
20260905194610 61 276 0.0 2.0 0.00 0.11 0.11 87 1021.9
20260905193026 62 243 0.0 2.0 0.00 0.11 0.11 84 1021.6
20260905191607 62 276 0.0 2.0 0.00 0.11 0.11 85 1021.7
20260905190154 63 211 1.0 4.0 0.00 0.11 0.11 81 1021.4
20260905184546 63 108 0.0 1.0 0.00 0.11 0.11 83 1021.4
20260905183123 63 98 0.0 1.0 0.00 0.11 0.11 81 1021.0
20260905181554 64 221 0.0 3.0 0.00 0.11 0.11 80 1020.7
20260905180129 64 229 0.0 1.0 0.00 0.11 0.11 81 1020.6
20260905174537 65 216 1.0 7.0 0.00 0.11 0.11 78 1020.4
20260905173115 65 264 1.0 8.0 0.00 0.11 0.11 79 1020.2
20260905171509 66 210 2.0 8.0 0.00 0.11 0.11 77 1020.1
20260905170031 66 209 0.0 2.0 0.00 0.11 0.11 76 1019.9
20260905164513 67 238 0.0 5.0 0.00 0.11 0.11 76 1019.9
20260905163106 68 213 0.0 1.0 0.00 0.11 0.11 74 1019.7
20260905161530 68 193 0.0 3.0 0.00 0.11 0.11 73 1019.7
20260905160115 68 84 0.0 3.0 0.00 0.11 0.11 72 1019.6
20260905154529 69 72 0.0 4.0 0.00 0.11 0.11 71 1019.4
20260905153109 68 216 0.0 1.0 0.00 0.11 0.11 76 1019.3
20260905151535 66 76 0.0 4.0 0.00 0.11 0.11 76 1019.5
20260905150116 66 350 3.0 16.0 0.00 0.11 0.11 75 1019.6
20260905144520 67 336 5.0 15.0 0.00 0.11 0.11 74 1019.0
20260905143124 67 308 2.0 16.0 0.00 0.11 0.11 73 1018.9
20260905141509 68 311 7.0 15.0 0.00 0.11 0.11 70 1018.4
20260905140104 69 294 8.0 19.0 0.00 0.11 0.11 70 1018.1
20260905134511 71 305 6.0 13.0 0.00 0.11 0.11 66 1017.8
20260905133126 70 311 4.0 10.0 0.00 0.11 0.11 67 1017.4
20260905131544 70 254 0.0 2.0 0.00 0.11 0.11 76 1017.2
20260905130114 69 230 0.0 5.0 0.00 0.11 0.11 81 1017.1
20260905124531 69 275 0.0 1.0 0.00 0.11 0.11 84 1017.1
20260905123131 70 221 0.0 1.0 0.00 0.11 0.11 81 1017.0
20260905121543 71 87 0.0 2.0 0.00 0.11 0.11 80 1017.1
20260905120123 70 80 0.0 2.0 0.00 0.11 0.11 80 1017.2
20260905114534 70 74 1.0 4.0 0.00 0.11 0.11 77 1017.4
20260905113129 68 77 0.0 1.0 0.00 0.11 0.11 83 1017.5
20260905111537 69 69 0.0 5.0 0.00 0.11 0.11 77 1017.7
20260905110114 70 334 1.0 6.0 0.00 0.11 0.11 80 1017.6
20260905104501 68 70 0.0 3.0 0.00 0.11 0.11 84 1017.7
20260905103111 66 82 0.0 5.0 0.00 0.11 0.11 86 1017.8
20260905101517 65 92 0.0 3.0 0.00 0.11 0.11 88 1017.9
20260905100110 64 74 0.0 2.0 0.00 0.11 0.11 86 1017.8
20260905094504 65 73 0.0 2.0 0.00 0.11 0.11 87 1017.8
20260905093048 65 59 0.0 4.0 0.00 0.11 0.11 86 1018.0
20260905091503 65 56 1.0 4.0 0.00 0.11 0.11 87 1017.9
20260905090042 65 76 0.0 9.0 0.01 0.11 0.11 86 1017.9
20260905084628 65 15 0.0 4.0 0.02 0.11 0.11 86 1017.8
20260905083032 63 132 0.0 2.0 0.04 0.11 0.11 91 1017.8
20260905081613 62 231 0.0 1.0 0.04 0.11 0.11 92 1017.7
20260905080022 62 211 0.0 2.0 0.03 0.10 0.10 87 1017.7
20260905074627 63 120 1.0 6.0 0.02 0.09 0.09 81 1017.5
20260905073034 65 30 3.0 11.0 0.00 0.07 0.07 78 1016.9
20260905071614 64 94 0.0 5.0 0.00 0.07 0.07 83 1016.3
20260905070004 64 19 1.0 11.0 0.00 0.07 0.07 85 1016.0
20260905064540 62 273 4.0 7.0 0.00 0.07 0.07 93 1015.5
20260905063114 59 319 0.0 0.0 0.00 0.07 0.07 96 1015.5
20260905061614 59 281 0.0 3.0 0.00 0.07 0.07 96 1015.2
20260905060154 58 345 0.0 4.0 0.00 0.07 0.07 96 1015.4
20260905054548 58 9 0.0 2.0 0.00 0.07 0.07 97 1015.1
20260905053116 57 310 0.0 0.0 0.00 0.07 0.07 96 1015.2
20260905051529 57 309 0.0 0.0 0.00 0.07 0.07 96 1015.0
20260905050129 57 309 0.0 0.0 0.00 0.07 0.07 96 1014.8
20260905044545 57 310 0.0 0.0 0.00 0.07 0.07 96 1015.0
20260905043120 57 310 0.0 0.0 0.00 0.07 0.07 96 1014.8
20260905041548 57 310 0.0 0.0 0.00 0.07 0.07 96 1014.9